Regional Weather Roundup
Issued by NWS

Home | Current Version | Previous Version | Text Only | Print | Product List | Glossary On
Versions: 1 2 3 4 5 6 7 8 9 10 11 12 13 14 15 16 17 18 19 20 21 22 23 24 25 26 27 28 29 30 31 32 33 34 35 36 37 38 39 40 41 42 43 44 45 46 47 48 49 50
000
ASUS46 KPQR 300510
RWROR

OREGON REGIONAL WEATHER ROUNDUP
NATIONAL WEATHER SERVICE PORTLAND OR
1000 PM PDT FRI AUG 29 2014

NOTE: "FAIR" INDICATES FEW OR NO CLOUDS BELOW 12,000 FEET WITH
NO SIGNIFICANT WEATHER AND/OR OBSTRUCTIONS TO VISIBILITY.

ORZ001>013-300600-
NORTHWEST OREGON


CITY           SKY/WX    TMP DP  RH WIND       PRES   REMARKS
ASTORIA        CLOUDY    59  57  93 SW5       29.98S
NEWPORT        FOG       59  59 100 CALM      30.03S VSB 1/2
PORTLAND       MOCLDY    69  57  65 N7        29.97R
VANCOUVER WA   PTCLDY    68  54  60 CALM      29.96S
SCAPPOOSE      MOCLDY    66  57  72 N5        29.96S
HILLSBORO      PTCLDY    66  56  70 N3        29.96S
AURORA         CLOUDY    68  56  65 CALM      29.97S
MCMINNVILLE    PTCLDY    66  56  70 W3        29.97S
SALEM          PTCLDY    67  55  65 CALM      29.95F
CORVALLIS      PTCLDY    63  55  77 NW10      29.98F
EUGENE         PTCLDY    63  52  67 CALM      29.99R
$$

ORZ021-028-300600-
SOUTHWEST OREGON


CITY           SKY/WX    TMP DP  RH WIND       PRES   REMARKS
NORTH BEND     CLOUDY    61  61 100 CALM      30.02F
BROOKINGS      MOCLDY    58  57  96 CALM      30.02R
ROSEBURG       PTCLDY    71  52  50 N5        29.98R
SEXTON SUMMIT  PTCLDY    57  47  69 N10       30.05S
MEDFORD        CLEAR     74  53  48 N7        29.96R
$$

ORZ009-041-300600-
COLUMBIA GORGE


CITY           SKY/WX    TMP DP  RH WIND       PRES   REMARKS
TROUTDALE      MOCLDY    69  55  60 CALM      29.96R
THE DALLES     PTCLDY    71  50  47 W14       29.90R
$$

ORZ029>031-042>050-061>064-300600-
EASTERN OREGON


CITY           SKY/WX    TMP DP  RH WIND       PRES   REMARKS
REDMOND        PTCLDY    62  44  51 CALM      29.99R
BEND           PTCLDY    63  46  55 CALM      30.02R
KLAMATH FALLS  MOCLDY    63  39  41 NW8       30.04R
LAKEVIEW       PTCLDY    59  34  38 W6        30.06R
HERMISTON      CLOUDY    70  49  47 SW12      29.87R
PENDLETON      CLOUDY    68  45  43 W16G26    29.88S
JOHN DAY       MOCLDY    66  45  46 NW6       29.97S
MEACHAM        CLOUDY    61  38  42 VRB3      29.99S
LA GRANDE      CLOUDY    70  36  28 W9        29.91F
BAKER CITY     CLOUDY    65  42  43 NW16      29.93R
BURNS          MOCLDY    68  38  33 W12       29.96R
ROME             N/A     75  36  24 E7        29.88F
ONTARIO        CLOUDY    79  44  28 NW22G32   29.77R
$$



USA.gov is the U.S. government's official web portal to all federal, state and local government web resources and services.